| time (UTC) | temp C | wind direction | speed KPH | gust KPH | rain 1hr cm | rain 24hr cm | rain mn cm | humidity % | barometer mb |
| 20260510214105 | 21 | 236 | 6.4 | 17.7 | 0.00 | 0.00 | 0.00 | 54 | 1016.2 |
| 20260510213556 | 22 | 258 | 4.8 | 17.7 | 0.00 | 0.00 | 0.00 | 54 | 1016.3 |
| 20260510213057 | 21 | 325 | 4.8 | 17.7 | 0.00 | 0.00 | 0.00 | 54 | 1016.3 |
| 20260510213038 | 21 | 325 | 6.4 | 17.7 | 0.00 | 0.00 | 0.00 | 54 | 1015.0 |
| 20260510212547 | 21 | 169 | 3.2 | 8.0 | 0.00 | 0.00 | 0.00 | 55 | 1016.3 |
| 20260510212038 | 21 | 311 | 1.6 | 6.4 | 0.00 | 0.00 | 0.00 | 61 | 1016.2 |
| 20260510211755 | 20 | 82 | 3.2 | 4.8 | 0.00 | 0.00 | 0.00 | 62 | 1016.2 |
| 20260510211603 | 20 | 133 | 1.6 | 4.8 | 0.00 | 0.00 | 0.00 | 62 | 1014.9 |
| 20260510211014 | 20 | 146 | 3.2 | 6.4 | 0.00 | 0.00 | 0.00 | 63 | 1016.4 |
| 20260510210503 | 20 | 185 | 1.6 | 8.0 | 0.00 | 0.00 | 0.00 | 65 | 1016.2 |
| 20260510210032 | 19 | 33 | 0.0 | 8.0 | 0.00 | 0.00 | 0.00 | 66 | 1014.9 |
| 20260510205953 | 19 | 342 | 3.2 | 8.0 | 0.00 | 0.00 | 0.00 | 66 | 1016.2 |
| 20260510205444 | 19 | 315 | 3.2 | 8.0 | 0.00 | 0.00 | 0.00 | 63 | 1016.3 |
| 20260510204934 | 19 | 331 | 1.6 | 14.5 | 0.00 | 0.00 | 0.00 | 63 | 1016.3 |
| 20260510204651 | 20 | 339 | 3.2 | 14.5 | 0.00 | 0.00 | 0.00 | 62 | 1016.3 |
| 20260510204606 | 20 | 339 | 1.6 | 8.0 | 0.00 | 0.00 | 0.00 | 62 | 1015.0 |
| 20260510203920 | 20 | 329 | 6.4 | 14.5 | 0.00 | 0.00 | 0.00 | 61 | 1016.3 |
| 20260510203421 | 20 | 329 | 6.4 | 16.1 | 0.00 | 0.00 | 0.00 | 58 | 1016.2 |
| 20260510203054 | 21 | 325 | 9.7 | 16.1 | 0.00 | 0.00 | 0.00 | 55 | 1015.0 |
| 20260510202911 | 21 | 323 | 3.2 | 14.5 | 0.00 | 0.00 | 0.00 | 55 | 1016.3 |
| 20260510202402 | 21 | 318 | 3.2 | 8.0 | 0.00 | 0.00 | 0.00 | 53 | 1016.4 |
| 20260510201851 | 22 | 252 | 3.2 | 12.9 | 0.00 | 0.00 | 0.00 | 51 | 1016.2 |
| 20260510201519 | 22 | 241 | 6.4 | 12.9 | 0.00 | 0.00 | 0.00 | 49 | 1014.8 |
| 20260510201337 | 22 | 234 | 3.2 | 9.7 | 0.00 | 0.00 | 0.00 | 51 | 1016.2 |
| 20260510200828 | 22 | 298 | 4.8 | 9.7 | 0.00 | 0.00 | 0.00 | 50 | 1016.1 |
| 20260510200318 | 22 | 236 | 4.8 | 11.3 | 0.00 | 0.00 | 0.00 | 49 | 1016.1 |
| 20260510200051 | 22 | 259 | 3.2 | 11.3 | 0.00 | 0.00 | 0.00 | 47 | 1014.8 |
| 20260510195808 | 22 | 217 | 4.8 | 14.5 | 0.00 | 0.00 | 0.00 | 47 | 1016.1 |
| 20260510195257 | 23 | 202 | 6.4 | 19.3 | 0.00 | 0.00 | 0.00 | 47 | 1016.1 |
| 20260510194747 | 23 | 202 | 6.4 | 19.3 | 0.00 | 0.00 | 0.00 | 47 | 1016.0 |
| 20260510194538 | 23 | 252 | 9.7 | 19.3 | 0.00 | 0.00 | 0.00 | 47 | 1014.8 |
| 20260510194244 | 23 | 217 | 4.8 | 16.1 | 0.00 | 0.00 | 0.00 | 48 | 1016.0 |
| 20260510193735 | 23 | 111 | 4.8 | 17.7 | 0.00 | 0.00 | 0.00 | 50 | 1016.1 |
| 20260510193224 | 23 | 201 | 6.4 | 19.3 | 0.00 | 0.00 | 0.00 | 52 | 1016.1 |
| 20260510193107 | 23 | 245 | 1.6 | 19.3 | 0.00 | 0.00 | 0.00 | 48 | 1014.8 |
| 20260510192945 | 23 | 247 | 6.4 | 19.3 | 0.00 | 0.00 | 0.00 | 51 | 1016.1 |
| 20260510192204 | 23 | 226 | 6.4 | 19.3 | 0.00 | 0.00 | 0.00 | 49 | 1016.1 |
| 20260510191654 | 22 | 277 | 11.3 | 24.1 | 0.00 | 0.00 | 0.00 | 50 | 1016.2 |
| 20260510191532 | 22 | 196 | 9.7 | 24.1 | 0.00 | 0.00 | 0.00 | 48 | 1015.0 |
| 20260510191411 | 22 | 254 | 9.7 | 24.1 | 0.00 | 0.00 | 0.00 | 48 | 1016.3 |
| 20260510190630 | 23 | 247 | 6.4 | 17.7 | 0.00 | 0.00 | 0.00 | 50 | 1016.3 |
| 20260510190351 | 23 | 242 | 4.8 | 17.7 | 0.00 | 0.00 | 0.00 | 47 | 1016.3 |
| 20260510190110 | 23 | 269 | 8.0 | 17.7 | 0.00 | 0.00 | 0.00 | 48 | 1015.1 |
| 20260510185609 | 23 | 231 | 8.0 | 17.7 | 0.00 | 0.00 | 0.00 | 51 | 1016.4 |
| 20260510185100 | 23 | 252 | 8.0 | 20.9 | 0.00 | 0.00 | 0.00 | 51 | 1016.5 |
| 20260510184544 | 22 | 229 | 6.4 | 19.3 | 0.00 | 0.00 | 0.00 | 51 | 1016.3 |
| 20260510184526 | 22 | 215 | 9.7 | 19.3 | 0.00 | 0.00 | 0.00 | 51 | 1015.1 |
| 20260510184041 | 22 | 198 | 8.0 | 24.1 | 0.00 | 0.00 | 0.00 | 53 | 1016.2 |
| 20260510183533 | 22 | 258 | 9.7 | 24.1 | 0.00 | 0.00 | 0.00 | 50 | 1016.3 |
| 20260510183022 | 22 | 252 | 8.0 | 17.7 | 0.00 | 0.00 | 0.00 | 54 | 1016.4 |
| 20260510182512 | 22 | 234 | 8.0 | 19.3 | 0.00 | 0.00 | 0.00 | 52 | 1016.4 |
| 20260510182001 | 22 | 240 | 6.4 | 19.3 | 0.00 | 0.00 | 0.00 | 52 | 1016.5 |
| 20260510181531 | 22 | 235 | 8.0 | 17.7 | 0.00 | 0.00 | 0.00 | 53 | 1015.4 |
| 20260510181452 | 22 | 222 | 6.4 | 17.7 | 0.00 | 0.00 | 0.00 | 55 | 1016.5 |
| 20260510180937 | 22 | 241 | 6.4 | 22.5 | 0.00 | 0.00 | 0.00 | 53 | 1016.5 |
| 20260510180428 | 22 | 262 | 6.4 | 22.5 | 0.00 | 0.00 | 0.00 | 53 | 1016.4 |
| 20260510180108 | 22 | 192 | 4.8 | 22.5 | 0.00 | 0.00 | 0.00 | 55 | 1015.5 |
| 20260510175917 | 22 | 238 | 6.4 | 19.3 | 0.00 | 0.00 | 0.00 | 54 | 1016.5 |
| 20260510175407 | 22 | 244 | 4.8 | 20.9 | 0.00 | 0.00 | 0.00 | 55 | 1016.6 |
| 20260510174849 | 22 | 233 | 4.8 | 20.9 | 0.00 | 0.00 | 0.00 | 54 | 1016.7 |
| 20260510174521 | 22 | 241 | 4.8 | 20.9 | 0.00 | 0.00 | 0.00 | 54 | 1015.6 |
| 20260510174340 | 22 | 291 | 4.8 | 14.5 | 0.00 | 0.00 | 0.00 | 59 | 1016.8 |
| 20260510173826 | 21 | 214 | 6.4 | 14.5 | 0.00 | 0.00 | 0.00 | 54 | 1016.8 |
| 20260510173315 | 22 | 244 | 6.4 | 16.1 | 0.00 | 0.00 | 0.00 | 55 | 1016.9 |
| 20260510173308 | 22 | 240 | 6.4 | 20.9 | 0.00 | 0.00 | 0.00 | 54 | 1016.9 |
| 20260510173052 | 22 | 257 | 4.8 | 16.1 | 0.00 | 0.00 | 0.00 | 57 | 1015.8 |
| 20260510172253 | 21 | 154 | 6.4 | 20.9 | 0.00 | 0.00 | 0.00 | 56 | 1017.0 |
| 20260510171743 | 21 | 227 | 6.4 | 17.7 | 0.00 | 0.00 | 0.00 | 55 | 1017.0 |
| 20260510171519 | 21 | 242 | 4.8 | 17.7 | 0.00 | 0.00 | 0.00 | 56 | 1016.0 |
| 20260510171233 | 21 | 232 | 6.4 | 17.7 | 0.00 | 0.00 | 0.00 | 55 | 1017.1 |
| 20260510170718 | 21 | 256 | 6.4 | 17.7 | 0.00 | 0.00 | 0.00 | 55 | 1017.0 |
| 20260510170207 | 21 | 209 | 6.4 | 17.7 | 0.00 | 0.00 | 0.00 | 55 | 1017.0 |
| 20260510170046 | 21 | 269 | 4.8 | 17.7 | 0.00 | 0.00 | 0.00 | 54 | 1015.9 |
| 20260510165657 | 21 | 254 | 6.4 | 20.9 | 0.00 | 0.00 | 0.00 | 55 | 1017.0 |
| 20260510165149 | 21 | 236 | 8.0 | 22.5 | 0.00 | 0.00 | 0.00 | 54 | 1017.3 |
| 20260510164640 | 21 | 226 | 6.4 | 22.5 | 0.00 | 0.00 | 0.00 | 55 | 1017.3 |
| 20260510164520 | 21 | 230 | 11.3 | 22.5 | 0.00 | 0.00 | 0.00 | 54 | 1016.1 |
| 20260510164131 | 21 | 236 | 6.4 | 17.7 | 0.00 | 0.00 | 0.00 | 56 | 1017.1 |
| 20260510163900 | 21 | 236 | 6.4 | 17.7 | 0.00 | 0.00 | 0.00 | 54 | 1017.4 |
| 20260510163138 | 21 | 108 | 3.2 | 12.9 | 0.00 | 0.00 | 0.00 | 55 | 1016.3 |
| 20260510163117 | 21 | 108 | 4.8 | 14.5 | 0.00 | 0.00 | 0.00 | 55 | 1017.4 |
| 20260510162609 | 21 | 238 | 6.4 | 17.7 | 0.00 | 0.00 | 0.00 | 58 | 1017.3 |
| 20260510162059 | 20 | 263 | 6.4 | 19.3 | 0.00 | 0.00 | 0.00 | 60 | 1017.3 |
| 20260510161824 | 20 | 238 | 4.8 | 17.7 | 0.00 | 0.00 | 0.00 | 57 | 1017.4 |
| 20260510161535 | 20 | 265 | 3.2 | 17.7 | 0.00 | 0.00 | 0.00 | 57 | 1016.3 |
| 20260510161046 | 20 | 186 | 6.4 | 22.5 | 0.00 | 0.00 | 0.00 | 57 | 1017.3 |
| 20260510160533 | 20 | 225 | 8.0 | 22.5 | 0.00 | 0.00 | 0.00 | 57 | 1017.5 |
| 20260510160026 | 20 | 202 | 6.4 | 16.1 | 0.00 | 0.00 | 0.00 | 58 | 1017.5 |
| 20260510160004 | 20 | 211 | 8.0 | 14.5 | 0.00 | 0.00 | 0.00 | 58 | 1016.5 |
| 20260510155747 | 20 | 270 | 6.4 | 16.1 | 0.00 | 0.00 | 0.00 | 57 | 1017.5 |
| 20260510155011 | 20 | 245 | 8.0 | 14.5 | 0.00 | 0.00 | 0.00 | 60 | 1017.5 |
| 20260510154547 | 20 | 238 | 9.7 | 19.3 | 0.00 | 0.00 | 0.00 | 60 | 1016.3 |
| 20260510154507 | 20 | 232 | 6.4 | 19.3 | 0.00 | 0.00 | 0.00 | 60 | 1017.5 |
| 20260510154002 | 19 | 252 | 4.8 | 19.3 | 0.00 | 0.00 | 0.00 | 60 | 1017.4 |
| 20260510153723 | 19 | 325 | 6.4 | 12.9 | 0.00 | 0.00 | 0.00 | 62 | 1017.5 |
| 20260510153053 | 19 | 214 | 4.8 | 16.1 | 0.00 | 0.00 | 0.00 | 61 | 1016.5 |
| 20260510152947 | 19 | 224 | 6.4 | 16.1 | 0.00 | 0.00 | 0.00 | 61 | 1017.4 |
| 20260510152441 | 19 | 200 | 6.4 | 16.1 | 0.00 | 0.00 | 0.00 | 61 | 1017.4 |
| 20260510151937 | 18 | 190 | 6.4 | 17.7 | 0.00 | 0.00 | 0.00 | 61 | 1017.5 |
| 20260510151525 | 18 | 226 | 8.0 | 17.7 | 0.00 | 0.00 | 0.00 | 61 | 1016.6 |
| 20260510151432 | 18 | 235 | 6.4 | 17.7 | 0.00 | 0.00 | 0.00 | 64 | 1017.6 |
| 20260510150925 | 18 | 279 | 4.8 | 16.1 | 0.00 | 0.00 | 0.00 | 62 | 1017.6 |
| 20260510150418 | 18 | 250 | 3.2 | 12.9 | 0.00 | 0.00 | 0.00 | 62 | 1017.6 |
| 20260510150059 | 18 | 260 | 1.6 | 12.9 | 0.00 | 0.00 | 0.00 | 63 | 1016.7 |
| 20260510145914 | 18 | 293 | 3.2 | 12.9 | 0.00 | 0.00 | 0.00 | 62 | 1017.7 |
| 20260510145405 | 18 | 257 | 3.2 | 11.3 | 0.00 | 0.00 | 0.00 | 63 | 1017.6 |
| 20260510144900 | 18 | 275 | 3.2 | 9.7 | 0.00 | 0.00 | 0.00 | 64 | 1017.6 |
| 20260510144542 | 18 | 259 | 1.6 | 12.9 | 0.00 | 0.00 | 0.00 | 67 | 1016.7 |
| 20260510144349 | 17 | 254 | 3.2 | 12.9 | 0.00 | 0.00 | 0.00 | 65 | 1017.6 |
| 20260510143847 | 17 | 343 | 3.2 | 12.9 | 0.00 | 0.00 | 0.00 | 66 | 1017.6 |
| 20260510143334 | 17 | 252 | 3.2 | 11.3 | 0.00 | 0.00 | 0.00 | 66 | 1017.6 |
| 20260510143032 | 17 | 285 | 1.6 | 4.8 | 0.00 | 0.00 | 0.00 | 66 | 1016.7 |
| 20260510142829 | 17 | 286 | 1.6 | 6.4 | 0.00 | 0.00 | 0.00 | 67 | 1017.7 |
| 20260510142325 | 17 | 219 | 1.6 | 6.4 | 0.00 | 0.00 | 0.00 | 67 | 1017.6 |
| 20260510141825 | 16 | 283 | 3.2 | 16.1 | 0.00 | 0.00 | 0.00 | 68 | 1017.6 |
| 20260510141510 | 16 | 272 | 1.6 | 16.1 | 0.00 | 0.00 | 0.00 | 69 | 1016.6 |
| 20260510141317 | 16 | 243 | 3.2 | 16.1 | 0.00 | 0.00 | 0.00 | 71 | 1017.6 |
| 20260510140814 | 16 | 245 | 3.2 | 9.7 | 0.00 | 0.00 | 0.00 | 71 | 1017.6 |
| 20260510140301 | 16 | 261 | 4.8 | 12.9 | 0.00 | 0.00 | 0.00 | 72 | 1017.6 |
| 20260510140036 | 16 | 266 | 3.2 | 11.3 | 0.00 | 0.00 | 0.00 | 73 | 1016.7 |
| 20260510135753 | 16 | 227 | 3.2 | 12.9 | 0.00 | 0.00 | 0.00 | 73 | 1017.7 |
| 20260510135513 | 16 | 250 | 1.6 | 6.4 | 0.00 | 0.00 | 0.00 | 74 | 1017.7 |
| 20260510134735 | 15 | 288 | 1.6 | 6.4 | 0.00 | 0.00 | 0.00 | 76 | 1017.7 |
| 20260510134507 | 15 | 295 | 1.6 | 6.4 | 0.00 | 0.00 | 0.00 | 76 | 1016.8 |
| 20260510134214 | 15 | 243 | 1.6 | 6.4 | 0.00 | 0.00 | 0.00 | 76 | 1017.7 |
| 20260510133706 | 15 | 187 | 3.2 | 11.3 | 0.00 | 0.00 | 0.00 | 77 | 1017.8 |
| 20260510133421 | 14 | 306 | 3.2 | 11.3 | 0.00 | 0.00 | 0.00 | 79 | 1017.7 |
| 20260510133027 | 14 | 5 | 0.0 | 11.3 | 0.00 | 0.00 | 0.00 | 79 | 1016.8 |
| 20260510132641 | 14 | 201 | 4.8 | 11.3 | 0.00 | 0.00 | 0.00 | 81 | 1017.7 |
| 20260510132132 | 13 | 163 | 3.2 | 11.3 | 0.00 | 0.00 | 0.00 | 81 | 1017.7 |
| 20260510131622 | 13 | 198 | 1.6 | 6.4 | 0.00 | 0.00 | 0.00 | 83 | 1017.8 |
| 20260510131605 | 13 | 198 | 1.6 | 6.4 | 0.00 | 0.00 | 0.00 | 83 | 1017.0 |
| 20260510131111 | 13 | 234 | 1.6 | 6.4 | 0.00 | 0.00 | 0.00 | 85 | 1017.8 |
| 20260510130601 | 13 | 172 | 1.6 | 6.4 | 0.00 | 0.00 | 0.00 | 87 | 1017.7 |
| 20260510130058 | 12 | 211 | 1.6 | 6.4 | 0.00 | 0.00 | 0.00 | 87 | 1017.7 |
| 20260510130038 | 12 | 226 | 3.2 | 6.4 | 0.00 | 0.00 | 0.00 | 87 | 1016.9 |
| 20260510125553 | 12 | 190 | 0.0 | 6.4 | 0.00 | 0.00 | 0.00 | 88 | 1017.7 |
| 20260510125313 | 12 | 185 | 0.0 | 0.0 | 0.00 | 0.00 | 0.00 | 89 | 1017.7 |
| 20260510124533 | 12 | 185 | 0.0 | 0.0 | 0.00 | 0.00 | 0.00 | 90 | 1017.6 |
| 20260510124519 | 12 | 185 | 0.0 | 0.0 | 0.00 | 0.00 | 0.00 | 90 | 1016.8 |
| 20260510124023 | 11 | 185 | 0.0 | 0.0 | 0.00 | 0.00 | 0.00 | 89 | 1017.6 |
| 20260510123513 | 10 | 185 | 0.0 | 0.0 | 0.00 | 0.00 | 0.00 | 89 | 1017.6 |
| 20260510123232 | 10 | 185 | 0.0 | 0.0 | 0.00 | 0.00 | 0.00 | 89 | 1017.7 |
| 20260510123038 | 10 | 185 | 0.0 | 0.0 | 0.00 | 0.00 | 0.00 | 89 | 1016.9 |
| 20260510122720 | 10 | 185 | 0.0 | 0.0 | 0.00 | 0.00 | 0.00 | 90 | 1017.6 |
| 20260510121939 | 10 | 185 | 0.0 | 0.0 | 0.00 | 0.00 | 0.00 | 90 | 1017.6 |
| 20260510121515 | 10 | 185 | 0.0 | 0.0 | 0.00 | 0.00 | 0.00 | 90 | 1016.8 |
| 20260510121430 | 10 | 185 | 0.0 | 0.0 | 0.00 | 0.00 | 0.00 | 90 | 1017.5 |
| 20260510120918 | 9 | 185 | 0.0 | 0.0 | 0.00 | 0.00 | 0.00 | 90 | 1017.4 |
| 20260510120409 | 8 | 185 | 0.0 | 0.0 | 0.00 | 0.00 | 0.00 | 90 | 1017.3 |
| 20260510120037 | 8 | 185 | 0.0 | 0.0 | 0.00 | 0.00 | 0.00 | 90 | 1016.6 |
| 20260510115856 | 7 | 185 | 0.0 | 0.0 | 0.00 | 0.00 | 0.00 | 90 | 1017.1 |
| 20260510115345 | 7 | 185 | 0.0 | 0.0 | 0.00 | 0.00 | 0.00 | 89 | 1017.0 |
| 20260510114834 | 6 | 185 | 0.0 | 0.0 | 0.00 | 0.00 | 0.00 | 89 | 1016.9 |
| 20260510114508 | 6 | 185 | 0.0 | 0.0 | 0.00 | 0.00 | 0.00 | 88 | 1016.4 |
| 20260510114324 | 6 | 185 | 0.0 | 0.0 | 0.00 | 0.00 | 0.00 | 88 | 1017.0 |
| 20260510113815 | 5 | 185 | 0.0 | 0.0 | 0.00 | 0.00 | 0.00 | 88 | 1016.9 |
| 20260510113304 | 5 | 185 | 0.0 | 0.0 | 0.00 | 0.00 | 0.00 | 88 | 1016.9 |
| 20260510113035 | 5 | 185 | 0.0 | 0.0 | 0.00 | 0.00 | 0.00 | 88 | 1016.3 |
| 20260510112747 | 5 | 185 | 0.0 | 0.0 | 0.00 | 0.00 | 0.00 | 88 | 1016.8 |
| 20260510112236 | 5 | 185 | 0.0 | 0.0 | 0.00 | 0.00 | 0.00 | 88 | 1016.8 |
| 20260510111959 | 5 | 185 | 0.0 | 0.0 | 0.00 | 0.00 | 0.00 | 87 | 1016.7 |
| 20260510111602 | 5 | 185 | 0.0 | 0.0 | 0.00 | 0.00 | 0.00 | 88 | 1016.2 |
| 20260510111216 | 4 | 185 | 0.0 | 0.0 | 0.00 | 0.00 | 0.00 | 88 | 1016.6 |
| 20260510110707 | 4 | 185 | 0.0 | 0.0 | 0.00 | 0.00 | 0.00 | 87 | 1016.5 |
| 20260510110657 | 4 | 185 | 0.0 | 0.0 | 0.00 | 0.00 | 0.00 | 87 | 1016.4 |
| 20260510110032 | 4 | 185 | 0.0 | 0.0 | 0.00 | 0.00 | 0.00 | 87 | 1015.7 |
| 20260510105642 | 4 | 185 | 0.0 | 0.0 | 0.00 | 0.00 | 0.00 | 87 | 1016.3 |
| 20260510105132 | 4 | 185 | 0.0 | 0.0 | 0.00 | 0.00 | 0.00 | 87 | 1016.2 |
| 20260510104622 | 4 | 185 | 0.0 | 0.0 | 0.00 | 0.00 | 0.00 | 87 | 1016.1 |
| 20260510104601 | 4 | 185 | 0.0 | 0.0 | 0.00 | 0.00 | 0.00 | 87 | 1015.5 |
| 20260510104113 | 4 | 185 | 0.0 | 0.0 | 0.00 | 0.00 | 0.00 | 87 | 1016.1 |
| 20260510103602 | 4 | 185 | 0.0 | 0.0 | 0.00 | 0.00 | 0.00 | 87 | 1016.0 |
| 20260510103324 | 4 | 185 | 0.0 | 0.0 | 0.00 | 0.00 | 0.00 | 87 | 1015.8 |
| 20260510103030 | 4 | 185 | 0.0 | 0.0 | 0.00 | 0.00 | 0.00 | 87 | 1015.1 |
| 20260510102539 | 4 | 185 | 0.0 | 0.0 | 0.00 | 0.00 | 0.00 | 87 | 1015.7 |
| 20260510102028 | 4 | 185 | 0.0 | 0.0 | 0.00 | 0.00 | 0.00 | 87 | 1015.7 |
| 20260510101557 | 4 | 185 | 0.0 | 0.0 | 0.00 | 0.00 | 0.00 | 87 | 1015.0 |
| 20260510101519 | 4 | 185 | 0.0 | 0.0 | 0.00 | 0.00 | 0.00 | 87 | 1015.7 |
| 20260510101008 | 4 | 185 | 0.0 | 0.0 | 0.00 | 0.00 | 0.00 | 87 | 1015.5 |
| 20260510100457 | 4 | 185 | 0.0 | 0.0 | 0.00 | 0.00 | 0.00 | 87 | 1015.5 |
| 20260510100036 | 4 | 185 | 0.0 | 0.0 | 0.00 | 0.00 | 0.00 | 87 | 1014.9 |
| 20260510095946 | 4 | 185 | 0.0 | 0.0 | 0.00 | 0.00 | 0.00 | 87 | 1015.4 |
| 20260510095432 | 4 | 185 | 0.0 | 0.0 | 0.00 | 0.00 | 0.00 | 87 | 1015.4 |
| 20260510094922 | 4 | 185 | 0.0 | 0.0 | 0.00 | 0.00 | 0.00 | 87 | 1015.3 |
| 20260510094602 | 4 | 185 | 0.0 | 0.0 | 0.00 | 0.00 | 0.00 | 87 | 1014.7 |
| 20260510094412 | 4 | 185 | 0.0 | 0.0 | 0.00 | 0.00 | 0.00 | 87 | 1015.3 |
| 20260510094134 | 4 | 185 | 0.0 | 0.0 | 0.00 | 0.00 | 0.00 | 86 | 1015.3 |
| 20260510093353 | 5 | 185 | 0.0 | 0.0 | 0.00 | 0.00 | 0.00 | 86 | 1015.2 |
| 20260510093024 | 5 | 185 | 0.0 | 0.0 | 0.00 | 0.00 | 0.00 | 86 | 1014.7 |
| 20260510092843 | 5 | 185 | 0.0 | 0.0 | 0.00 | 0.00 | 0.00 | 86 | 1015.2 |
| 20260510092329 | 5 | 185 | 0.0 | 0.0 | 0.00 | 0.00 | 0.00 | 86 | 1015.2 |
| 20260510092050 | 5 | 185 | 0.0 | 0.0 | 0.00 | 0.00 | 0.00 | 86 | 1015.2 |
| 20260510091552 | 5 | 185 | 0.0 | 0.0 | 0.00 | 0.00 | 0.00 | 87 | 1014.6 |
| 20260510091541 | 5 | 185 | 0.0 | 0.0 | 0.00 | 0.00 | 0.00 | 87 | 1015.1 |
| 20260510090759 | 5 | 185 | 0.0 | 0.0 | 0.00 | 0.00 | 0.00 | 86 | 1015.1 |
| 20260510090519 | 5 | 185 | 0.0 | 0.0 | 0.00 | 0.00 | 0.00 | 86 | 1015.1 |
| 20260510090024 | 5 | 185 | 0.0 | 0.0 | 0.00 | 0.00 | 0.00 | 86 | 1014.4 |
| 20260510090009 | 5 | 185 | 0.0 | 0.0 | 0.00 | 0.00 | 0.00 | 86 | 1015.0 |
| 20260510085223 | 5 | 185 | 0.0 | 0.0 | 0.00 | 0.00 | 0.00 | 86 | 1015.0 |
| 20260510084710 | 5 | 185 | 0.0 | 0.0 | 0.00 | 0.00 | 0.00 | 87 | 1014.9 |
| 20260510084607 | 5 | 185 | 0.0 | 0.0 | 0.00 | 0.00 | 0.00 | 87 | 1014.3 |
| 20260510084201 | 5 | 185 | 0.0 | 0.0 | 0.00 | 0.00 | 0.00 | 87 | 1014.9 |
| 20260510083651 | 5 | 185 | 0.0 | 0.0 | 0.00 | 0.00 | 0.00 | 86 | 1014.8 |
| 20260510083143 | 5 | 185 | 0.0 | 0.0 | 0.00 | 0.00 | 0.00 | 86 | 1014.7 |
| 20260510083022 | 5 | 185 | 0.0 | 0.0 | 0.00 | 0.00 | 0.00 | 86 | 1014.2 |
| 20260510082906 | 6 | 185 | 0.0 | 0.0 | 0.00 | 0.00 | 0.00 | 87 | 1014.7 |
| 20260510082120 | 6 | 185 | 0.0 | 1.6 | 0.00 | 0.00 | 0.00 | 87 | 1014.8 |
| 20260510081608 | 6 | 185 | 0.0 | 1.6 | 0.00 | 0.00 | 0.00 | 86 | 1014.8 |
| 20260510081553 | 5 | 185 | 0.0 | 1.6 | 0.00 | 0.00 | 0.00 | 86 | 1014.2 |
| 20260510081059 | 5 | 185 | 0.0 | 1.6 | 0.00 | 0.00 | 0.00 | 86 | 1014.7 |
| 20260510081053 | 6 | 185 | 0.0 | 0.0 | 0.00 | 0.00 | 0.00 | 86 | 1014.7 |
| 20260510080044 | 6 | 185 | 0.0 | 0.0 | 0.00 | 0.00 | 0.00 | 86 | 1014.6 |
| 20260510080028 | 6 | 185 | 0.0 | 0.0 | 0.00 | 0.00 | 0.00 | 86 | 1014.0 |
| 20260510075813 | 6 | 185 | 0.0 | 0.0 | 0.00 | 0.00 | 0.00 | 86 | 1014.5 |
| 20260510075032 | 6 | 185 | 0.0 | 0.0 | 0.00 | 0.00 | 0.00 | 86 | 1014.4 |
| 20260510074529 | 6 | 185 | 0.0 | 1.6 | 0.00 | 0.00 | 0.00 | 86 | 1014.4 |
| 20260510074511 | 6 | 185 | 0.0 | 1.6 | 0.00 | 0.00 | 0.00 | 86 | 1013.7 |
| 20260510074028 | 6 | 185 | 0.0 | 1.6 | 0.00 | 0.00 | 0.00 | 86 | 1014.4 |
| 20260510073522 | 6 | 185 | 0.0 | 0.0 | 0.00 | 0.00 | 0.00 | 86 | 1014.4 |
| 20260510073103 | 6 | 185 | 0.0 | 3.2 | 0.00 | 0.00 | 0.00 | 86 | 1013.8 |
| 20260510073014 | 6 | 185 | 1.6 | 3.2 | 0.00 | 0.00 | 0.00 | 86 | 1014.4 |
| 20260510072509 | 6 | 185 | 1.6 | 3.2 | 0.00 | 0.00 | 0.00 | 86 | 1014.4 |
| 20260510071958 | 6 | 188 | 0.0 | 3.2 | 0.00 | 0.00 | 0.00 | 86 | 1014.4 |
| 20260510071539 | 6 | 188 | 0.0 | 0.0 | 0.00 | 0.00 | 0.00 | 86 | 1013.7 |
| 20260510071452 | 6 | 188 | 0.0 | 0.0 | 0.00 | 0.00 | 0.00 | 86 | 1014.4 |
| 20260510070947 | 6 | 188 | 0.0 | 0.0 | 0.00 | 0.00 | 0.00 | 86 | 1014.4 |
| 20260510070444 | 6 | 188 | 0.0 | 0.0 | 0.00 | 0.00 | 0.00 | 86 | 1014.4 |
| 20260510070029 | 6 | 188 | 0.0 | 0.0 | 0.00 | 0.00 | 0.00 | 86 | 1013.7 |
| 20260510065940 | 6 | 188 | 0.0 | 0.0 | 0.00 | 0.00 | 0.00 | 86 | 1014.4 |
| 20260510065437 | 6 | 188 | 0.0 | 0.0 | 0.00 | 0.00 | 0.00 | 86 | 1014.4 |
| 20260510064931 | 6 | 188 | 0.0 | 0.0 | 0.00 | 0.00 | 0.00 | 86 | 1014.3 |
| 20260510064510 | 6 | 188 | 0.0 | 0.0 | 0.00 | 0.00 | 0.00 | 86 | 1013.6 |
| 20260510064423 | 7 | 188 | 0.0 | 0.0 | 0.00 | 0.00 | 0.00 | 86 | 1014.3 |
| 20260510064148 | 7 | 188 | 0.0 | 0.0 | 0.00 | 0.00 | 0.00 | 86 | 1014.2 |
| 20260510063415 | 7 | 188 | 0.0 | 1.6 | 0.00 | 0.00 | 0.00 | 86 | 1014.3 |
| 20260510063059 | 7 | 188 | 0.0 | 1.6 | 0.00 | 0.00 | 0.00 | 86 | 1013.5 |
| 20260510062909 | 7 | 188 | 0.0 | 1.6 | 0.00 | 0.00 | 0.00 | 86 | 1014.3 |
| 20260510062402 | 7 | 188 | 0.0 | 1.6 | 0.00 | 0.00 | 0.00 | 86 | 1014.2 |
| 20260510061853 | 7 | 188 | 0.0 | 0.0 | 0.00 | 0.00 | 0.00 | 86 | 1014.3 |
| 20260510061616 | 7 | 188 | 0.0 | 1.6 | 0.00 | 0.00 | 0.00 | 85 | 1014.3 |
| 20260510061524 | 7 | 188 | 0.0 | 1.6 | 0.00 | 0.00 | 0.00 | 85 | 1013.6 |
| 20260510060834 | 7 | 188 | 0.0 | 1.6 | 0.00 | 0.00 | 0.00 | 85 | 1014.3 |
| 20260510060327 | 7 | 188 | 0.0 | 0.0 | 0.00 | 0.00 | 0.00 | 85 | 1014.3 |
| 20260510055815 | 7 | 188 | 0.0 | 0.0 | 0.00 | 0.00 | 0.00 | 85 | 1014.3 |
| 20260510055307 | 7 | 188 | 0.0 | 1.6 | 0.00 | 0.00 | 0.00 | 85 | 1014.4 |
| 20260510054755 | 7 | 188 | 0.0 | 1.6 | 0.00 | 0.00 | 0.00 | 85 | 1014.4 |
| 20260510054529 | 7 | 188 | 0.0 | 0.0 | 0.00 | 0.00 | 0.00 | 85 | 1013.6 |
| 20260510054246 | 7 | 188 | 0.0 | 0.0 | 0.00 | 0.00 | 0.00 | 85 | 1014.3 |
| 20260510053735 | 7 | 188 | 0.0 | 0.0 | 0.00 | 0.00 | 0.00 | 85 | 1014.3 |
| 20260510053227 | 7 | 188 | 0.0 | 0.0 | 0.00 | 0.00 | 0.00 | 85 | 1014.3 |
| 20260510053006 | 7 | 188 | 0.0 | 0.0 | 0.00 | 0.00 | 0.00 | 85 | 1013.5 |
| 20260510052723 | 7 | 188 | 0.0 | 0.0 | 0.00 | 0.00 | 0.00 | 85 | 1014.2 |
| 20260510052214 | 7 | 188 | 0.0 | 0.0 | 0.00 | 0.00 | 0.00 | 85 | 1014.0 |
| 20260510051659 | 7 | 188 | 0.0 | 0.0 | 0.00 | 0.00 | 0.00 | 85 | 1014.0 |
| 20260510051535 | 7 | 188 | 0.0 | 0.0 | 0.00 | 0.00 | 0.00 | 85 | 1013.4 |
| 20260510051149 | 7 | 188 | 0.0 | 0.0 | 0.00 | 0.00 | 0.00 | 85 | 1014.0 |
| 20260510050911 | 8 | 188 | 0.0 | 1.6 | 0.00 | 0.00 | 0.00 | 85 | 1014.0 |
| 20260510050410 | 8 | 188 | 0.0 | 1.6 | 0.00 | 0.00 | 0.00 | 85 | 1014.0 |
| 20260510050015 | 8 | 188 | 0.0 | 1.6 | 0.00 | 0.00 | 0.00 | 85 | 1013.3 |
| 20260510045630 | 8 | 188 | 0.0 | 0.0 | 0.00 | 0.00 | 0.00 | 85 | 1013.9 |
| 20260510045120 | 8 | 188 | 0.0 | 3.2 | 0.00 | 0.00 | 0.00 | 84 | 1014.0 |
| 20260510044838 | 8 | 188 | 0.0 | 3.2 | 0.00 | 0.00 | 0.00 | 84 | 1014.0 |
| 20260510044546 | 8 | 188 | 0.0 | 3.2 | 0.00 | 0.00 | 0.00 | 84 | 1013.3 |
| 20260510044055 | 8 | 188 | 0.0 | 3.2 | 0.00 | 0.00 | 0.00 | 84 | 1013.9 |
| 20260510043545 | 8 | 188 | 1.6 | 3.2 | 0.00 | 0.00 | 0.00 | 85 | 1013.9 |
| 20260510043036 | 8 | 188 | 0.0 | 3.2 | 0.00 | 0.00 | 0.00 | 84 | 1014.0 |
| 20260510043013 | 8 | 188 | 0.0 | 3.2 | 0.00 | 0.00 | 0.00 | 84 | 1013.3 |
| 20260510042525 | 8 | 188 | 0.0 | 0.0 | 0.00 | 0.00 | 0.00 | 84 | 1014.0 |
| 20260510042015 | 8 | 188 | 0.0 | 0.0 | 0.00 | 0.00 | 0.00 | 84 | 1013.9 |
| 20260510041540 | 8 | 188 | 0.0 | 0.0 | 0.00 | 0.00 | 0.00 | 84 | 1013.2 |
| 20260510041502 | 8 | 188 | 0.0 | 0.0 | 0.00 | 0.00 | 0.00 | 84 | 1013.9 |
| 20260510040945 | 9 | 188 | 0.0 | 0.0 | 0.00 | 0.00 | 0.00 | 84 | 1013.8 |
| 20260510040435 | 9 | 188 | 0.0 | 1.6 | 0.00 | 0.00 | 0.00 | 84 | 1013.8 |
| 20260510040009 | 9 | 188 | 0.0 | 1.6 | 0.00 | 0.00 | 0.00 | 83 | 1013.1 |
| 20260510035925 | 9 | 188 | 0.0 | 1.6 | 0.00 | 0.00 | 0.00 | 83 | 1013.8 |
| 20260510035414 | 9 | 188 | 0.0 | 0.0 | 0.00 | 0.00 | 0.00 | 83 | 1013.9 |
| 20260510034907 | 9 | 188 | 0.0 | 0.0 | 0.00 | 0.00 | 0.00 | 83 | 1013.9 |
| 20260510034852 | 9 | 188 | 0.0 | 0.0 | 0.00 | 0.00 | 0.00 | 83 | 1014.0 |
| 20260510034540 | 9 | 188 | 0.0 | 0.0 | 0.00 | 0.00 | 0.00 | 83 | 1013.3 |
| 20260510033843 | 10 | 188 | 0.0 | 0.0 | 0.00 | 0.00 | 0.00 | 83 | 1014.0 |
| 20260510033331 | 10 | 188 | 0.0 | 1.6 | 0.00 | 0.00 | 0.00 | 83 | 1013.8 |
| 20260510033002 | 10 | 188 | 0.0 | 1.6 | 0.00 | 0.00 | 0.00 | 83 | 1013.1 |
| 20260510032822 | 10 | 188 | 0.0 | 0.0 | 0.00 | 0.00 | 0.00 | 83 | 1013.8 |
| 20260510032310 | 10 | 188 | 0.0 | 1.6 | 0.00 | 0.00 | 0.00 | 82 | 1013.8 |
| 20260510031801 | 10 | 188 | 0.0 | 1.6 | 0.00 | 0.00 | 0.00 | 82 | 1013.7 |
| 20260510031533 | 10 | 188 | 0.0 | 1.6 | 0.00 | 0.00 | 0.00 | 82 | 1012.8 |
| 20260510031247 | 10 | 188 | 0.0 | 1.6 | 0.00 | 0.00 | 0.00 | 82 | 1013.7 |
| 20260510030738 | 10 | 188 | 0.0 | 1.6 | 0.00 | 0.00 | 0.00 | 82 | 1013.6 |
| 20260510030227 | 10 | 188 | 0.0 | 1.6 | 0.00 | 0.00 | 0.00 | 82 | 1013.5 |
| 20260510025717 | 10 | 188 | 0.0 | 0.0 | 0.00 | 0.00 | 0.00 | 81 | 1013.4 |
| 20260510025207 | 10 | 188 | 0.0 | 1.6 | 0.00 | 0.00 | 0.00 | 81 | 1013.4 |
| 20260510024657 | 11 | 188 | 0.0 | 0.0 | 0.00 | 0.00 | 0.00 | 80 | 1013.4 |
| 20260510024531 | 11 | 188 | 0.0 | 1.6 | 0.00 | 0.00 | 0.00 | 80 | 1012.7 |
| 20260510024142 | 11 | 188 | 0.0 | 1.6 | 0.00 | 0.00 | 0.00 | 80 | 1013.4 |
| 20260510023633 | 11 | 188 | 0.0 | 1.6 | 0.00 | 0.00 | 0.00 | 80 | 1013.2 |
| 20260510023123 | 11 | 188 | 1.6 | 3.2 | 0.00 | 0.00 | 0.00 | 80 | 1013.3 |
| 20260510023100 | 11 | 188 | 0.0 | 3.2 | 0.00 | 0.00 | 0.00 | 80 | 1012.6 |
| 20260510022613 | 11 | 188 | 1.6 | 3.2 | 0.00 | 0.00 | 0.00 | 79 | 1013.3 |
| 20260510022102 | 11 | 188 | 0.0 | 1.6 | 0.00 | 0.00 | 0.00 | 79 | 1013.3 |
| 20260510021551 | 11 | 188 | 0.0 | 0.0 | 0.00 | 0.00 | 0.00 | 78 | 1013.3 |
| 20260510021540 | 12 | 188 | 0.0 | 0.0 | 0.00 | 0.00 | 0.00 | 77 | 1013.3 |
| 20260510021532 | 11 | 188 | 0.0 | 0.0 | 0.00 | 0.00 | 0.00 | 78 | 1012.5 |
| 20260510020525 | 12 | 188 | 0.0 | 0.0 | 0.00 | 0.00 | 0.00 | 77 | 1013.2 |
| 20260510020054 | 12 | 188 | 0.0 | 0.0 | 0.00 | 0.00 | 0.00 | 76 | 1012.3 |
| 20260510020015 | 12 | 188 | 0.0 | 0.0 | 0.00 | 0.00 | 0.00 | 76 | 1013.0 |
| 20260510015457 | 12 | 188 | 0.0 | 0.0 | 0.00 | 0.00 | 0.00 | 76 | 1013.1 |
| 20260510015211 | 12 | 188 | 0.0 | 1.6 | 0.00 | 0.00 | 0.00 | 76 | 1013.0 |
| 20260510014508 | 12 | 188 | 0.0 | 3.2 | 0.00 | 0.00 | 0.00 | 75 | 1012.1 |
| 20260510014428 | 13 | 188 | 1.6 | 3.2 | 0.00 | 0.00 | 0.00 | 75 | 1012.9 |
| 20260510013915 | 13 | 188 | 0.0 | 3.2 | 0.00 | 0.00 | 0.00 | 74 | 1012.8 |
| 20260510013404 | 13 | 188 | 0.0 | 1.6 | 0.00 | 0.00 | 0.00 | 73 | 1012.8 |
| 20260510013036 | 13 | 188 | 0.0 | 1.6 | 0.00 | 0.00 | 0.00 | 73 | 1011.9 |
| 20260510012854 | 13 | 188 | 0.0 | 1.6 | 0.00 | 0.00 | 0.00 | 73 | 1012.8 |
| 20260510012344 | 13 | 188 | 0.0 | 1.6 | 0.00 | 0.00 | 0.00 | 72 | 1012.7 |
| 20260510011834 | 14 | 188 | 0.0 | 1.6 | 0.00 | 0.00 | 0.00 | 71 | 1012.6 |
| 20260510011509 | 14 | 188 | 0.0 | 1.6 | 0.00 | 0.00 | 0.00 | 71 | 1011.5 |
| 20260510011324 | 14 | 188 | 0.0 | 0.0 | 0.00 | 0.00 | 0.00 | 70 | 1012.4 |
| 20260510010802 | 14 | 188 | 0.0 | 0.0 | 0.00 | 0.00 | 0.00 | 70 | 1012.3 |
| 20260510010245 | 15 | 188 | 0.0 | 1.6 | 0.00 | 0.00 | 0.00 | 69 | 1012.2 |
| 20260510010019 | 15 | 188 | 0.0 | 1.6 | 0.00 | 0.00 | 0.00 | 69 | 1011.3 |
| 20260510005736 | 15 | 188 | 0.0 | 1.6 | 0.00 | 0.00 | 0.00 | 69 | 1012.1 |
| 20260510005225 | 15 | 188 | 0.0 | 3.2 | 0.00 | 0.00 | 0.00 | 67 | 1011.9 |
| 20260510004715 | 16 | 188 | 0.0 | 3.2 | 0.00 | 0.00 | 0.00 | 66 | 1011.8 |
| 20260510004551 | 16 | 188 | 0.0 | 3.2 | 0.00 | 0.00 | 0.00 | 66 | 1010.9 |
| 20260510004204 | 16 | 188 | 1.6 | 3.2 | 0.00 | 0.00 | 0.00 | 65 | 1011.7 |
| 20260510003651 | 17 | 188 | 1.6 | 3.2 | 0.00 | 0.00 | 0.00 | 62 | 1011.8 |
| 20260510003141 | 17 | 188 | 0.0 | 1.6 | 0.00 | 0.00 | 0.00 | 60 | 1011.6 |
| 20260510003016 | 17 | 188 | 0.0 | 1.6 | 0.00 | 0.00 | 0.00 | 59 | 1010.8 |
| 20260510002630 | 17 | 188 | 0.0 | 0.0 | 0.00 | 0.00 | 0.00 | 59 | 1011.6 |
| 20260510002120 | 17 | 188 | 0.0 | 3.2 | 0.00 | 0.00 | 0.00 | 58 | 1011.5 |
| 20260510001842 | 18 | 188 | 1.6 | 6.4 | 0.00 | 0.00 | 0.00 | 57 | 1011.5 |
| 20260510001549 | 18 | 188 | 0.0 | 4.8 | 0.00 | 0.00 | 0.00 | 57 | 1010.6 |
| 20260510001100 | 18 | 229 | 1.6 | 6.4 | 0.00 | 0.00 | 0.00 | 56 | 1011.5 |
| 20260510000544 | 18 | 259 | 3.2 | 6.4 | 0.00 | 0.00 | 0.00 | 55 | 1011.3 |
| 20260510000035 | 18 | 229 | 3.2 | 9.7 | 0.00 | 0.00 | 0.00 | 55 | 1011.4 |
| 20260510000016 | 18 | 229 | 1.6 | 8.0 | 0.00 | 0.00 | 0.00 | 55 | 1010.6 |
| 20260509235525 | 18 | 234 | 3.2 | 11.3 | 0.00 | 0.00 | 0.00 | 54 | 1011.4 |
| 20260509235251 | 18 | 247 | 3.2 | 11.3 | 0.00 | 0.00 | 0.00 | 54 | 1011.5 |
| 20260509234552 | 18 | 209 | 1.6 | 11.3 | 0.00 | 0.00 | 0.00 | 54 | 1010.7 |
| 20260509234500 | 19 | 267 | 4.8 | 11.3 | 0.00 | 0.00 | 0.00 | 54 | 1011.5 |
| 20260509233955 | 19 | 254 | 6.4 | 14.5 | 0.00 | 0.00 | 0.00 | 53 | 1011.4 |
| 20260509233445 | 19 | 236 | 6.4 | 14.5 | 0.00 | 0.00 | 0.00 | 53 | 1011.5 |
| 20260509233207 | 19 | 232 | 4.8 | 14.5 | 0.00 | 0.00 | 0.00 | 52 | 1011.3 |
| 20260509233024 | 19 | 197 | 6.4 | 12.9 | 0.00 | 0.00 | 0.00 | 52 | 1010.5 |
| 20260509232433 | 19 | 237 | 4.8 | 17.7 | 0.00 | 0.00 | 0.00 | 52 | 1011.3 |
| 20260509231926 | 19 | 200 | 4.8 | 17.7 | 0.00 | 0.00 | 0.00 | 52 | 1011.3 |
| 20260509231653 | 19 | 207 | 6.4 | 16.1 | 0.00 | 0.00 | 0.00 | 53 | 1011.2 |
| 20260509231514 | 19 | 279 | 6.4 | 17.7 | 0.00 | 0.00 | 0.00 | 53 | 1010.4 |
| 20260509230917 | 19 | 207 | 8.0 | 16.1 | 0.00 | 0.00 | 0.00 | 53 | 1011.1 |
| 20260509230406 | 19 | 180 | 9.7 | 16.1 | 0.00 | 0.00 | 0.00 | 52 | 1011.0 |
| 20260509230039 | 19 | 175 | 8.0 | 16.1 | 0.00 | 0.00 | 0.00 | 53 | 1010.1 |
| 20260509225858 | 19 | 235 | 8.0 | 17.7 | 0.00 | 0.00 | 0.00 | 52 | 1011.0 |
| 20260509225355 | 19 | 239 | 8.0 | 19.3 | 0.00 | 0.00 | 0.00 | 52 | 1011.0 |
| 20260509224838 | 20 | 242 | 6.4 | 19.3 | 0.00 | 0.00 | 0.00 | 52 | 1011.0 |
| 20260509224601 | 20 | 243 | 4.8 | 20.9 | 0.00 | 0.00 | 0.00 | 53 | 1011.0 |
| 20260509224512 | 20 | 245 | 11.3 | 17.7 | 0.00 | 0.00 | 0.00 | 52 | 1010.2 |
| 20260509224056 | 20 | 223 | 6.4 | 20.9 | 0.00 | 0.00 | 0.00 | 52 | 1011.1 |
| 20260509223323 | 20 | 171 | 6.4 | 17.7 | 0.00 | 0.00 | 0.00 | 52 | 1011.0 |
| 20260509223105 | 20 | 254 | 4.8 | 17.7 | 0.00 | 0.00 | 0.00 | 53 | 1010.1 |
| 20260509222812 | 20 | 225 | 8.0 | 19.3 | 0.00 | 0.00 | 0.00 | 52 | 1010.8 |
| 20260509222311 | 20 | 220 | 9.7 | 19.3 | 0.00 | 0.00 | 0.00 | 52 | 1011.0 |
| 20260509221803 | 20 | 239 | 8.0 | 19.3 | 0.00 | 0.00 | 0.00 | 51 | 1010.8 |
| 20260509221641 | 20 | 196 | 6.4 | 19.3 | 0.00 | 0.00 | 0.00 | 51 | 1010.1 |
| 20260509221258 | 20 | 249 | 6.4 | 19.3 | 0.00 | 0.00 | 0.00 | 50 | 1010.7 |
| 20260509220758 | 20 | 205 | 6.4 | 16.1 | 0.00 | 0.00 | 0.00 | 51 | 1010.7 |
| 20260509220249 | 20 | 247 | 6.4 | 16.1 | 0.00 | 0.00 | 0.00 | 50 | 1010.8 |
| 20260509220025 | 20 | 267 | 6.4 | 16.1 | 0.00 | 0.00 | 0.00 | 51 | 1010.2 |
| 20260509215745 | 20 | 198 | 4.8 | 12.9 | 0.00 | 0.00 | 0.00 | 51 | 1011.1 |
| 20260509215508 | 20 | 265 | 3.2 | 9.7 | 0.00 | 0.00 | 0.00 | 51 | 1011.0 |
| 20260509214735 | 20 | 192 | 4.8 | 22.5 | 0.00 | 0.00 | 0.00 | 52 | 1011.0 |